Regional Weather Roundup
Issued by NWS

Home | Current Version | Previous Version | Text Only | Print | Product List | Glossary Off
Versions: 1 2 3 4 5 6 7 8 9 10 11 12 13 14 15 16 17 18 19 20 21 22 23 24 25 26 27 28 29 30 31 32 33 34 35 36 37 38 39 40 41 42 43 44 45 46 47 48 49 50

000
ASUS44 KMEG 302210
RWRTN
TENNESSEE HOURLY STATE WEATHER ROUNDUP
NATIONAL WEATHER SERVICE MEMPHIS TN
500 PM CDT MON MAR 30 2015

TNZ002-004-019-021-049-052-054-088>092-302300-
WEST TENNESSEE

CITY           SKY/WX    TMP DP  RH WIND       PRES   REMARKS
MEMPHIS INTL   SUNNY     73  39  29 NW6       30.12F
NWS MEMPHIS      N/A     73 N/A N/A MISG        N/A
JACKSON        SUNNY     70  31  23 NW8       30.13F
DYERSBURG      SUNNY     66  30  26 N3        30.13F
UNION CITY     SUNNY     66  39  37 S6        30.11F
PARIS          SUNNY     66  30  26 VRB7      30.12F
HUNTINGDON     SUNNY     66  27  23 W8        30.12F
LEXINGTON      SUNNY     70  28  21 VRB3      30.11F
SAVANNAH       SUNNY     70  36  28 NW6       30.13F
$$

TNZ008-025-027-028-033-062-065-066-302300-
NORTH MIDDLE TENNESSEE

CITY           SKY/WX    TMP DP  RH WIND       PRES   REMARKS
NASHVILLE      SUNNY     69  24  18 W8        30.10F
CLARKSVILLE    SUNNY     67  25  20 N6        30.10F
SMYRNA         SUNNY     69  28  21 N8        30.11F
COOKEVILLE     SUNNY     66  28  24 W6          N/A
CROSSVILLE     SUNNY     62  24  23 W15       30.08F
$$

TNZ061-075-076-078-094-096-097-302300-
SOUTH MIDDLE TENNESSEE

CITY           SKY/WX    TMP DP  RH WIND       PRES   REMARKS
FAYETTEVILLE   SUNNY     66  34  30 SW8       30.12F
TULLAHOMA      SUNNY     66  28  24 NW7       30.12F
WINCHESTER     SUNNY     64  32  29 W6        30.12S
MCMINNVILLE    SUNNY     66  30  26 W7        30.10S
COLUMBIA       SUNNY     70  34  26 CALM      30.10S
SHELBYVILLE    SUNNY     70  34  26 SW7       30.12S
$$

TNZ017-018-042-046-047-302300-
NORTHEAST TENNESSEE

CITY           SKY/WX    TMP DP  RH WIND       PRES   REMARKS
TRI CITIES     MOSUNNY   61  29  29 W9G21     30.02F
ELIZABETHTON   CLEAR     59  28  31 NW9       30.02F
$$

TNZ012-013-036-069-073-074-302300-
CENTRAL EAST TENNESSEE

CITY           SKY/WX    TMP DP  RH WIND       PRES   REMARKS
KNOXVILLE      MOSUNNY   67  26  21 W13       30.04F
OAK RIDGE      SUNNY     68  24  19 VRB7      30.05F
GATLINBURG     CLEAR     66  27  22 W8        30.03F
MORRISTOWN     CLEAR     64  28  25 NW10      30.03F
$$

TNZ083-085-099-302300-
SOUTHEAST TENNESSEE

CITY           SKY/WX    TMP DP  RH WIND       PRES   REMARKS
CHATTANOOGA    MOSUNNY   70  33  25 W9G20     30.08F
$$

SKY/WX REPORTED AS FAIR MEANS FEW OR NO CLOUDS BELOW
12 THOUSAND FEET.



USA.gov is the U.S. government's official web portal to all federal, state and local government web resources and services.